TGL66PC LHBP-LGMK

Flight info

Callsign TGL66PC
Flight time 1h 40m
Altitude 37000
Route FAHAZ DCT KEROP DCT XENIT DCT IBISI DCT MAKED UL617 SKP UN137 AGAPU AGAP1P
Aircraft A320/M-SDE3FGHIRWY/LB1

Departure

Time 2026-04-21 08:04
Airport Budapest Liszt Ferenc International Airport (LHBP)

Arrival

Time 2026-04-21 09:44
Airport Mykonos Island National Airport (LGMK)
Time Latitude Longitude Altitude Speed Heading
2026-04-21 07:29 47.42850 19.24623 466 ft 0 kts 231°
2026-04-21 07:58 47.42849 19.24622 471 ft 1 kts 232°
2026-04-21 07:58 47.42844 19.24581 469 ft 6 kts 275°
2026-04-21 07:58 47.42878 19.24543 470 ft 6 kts
2026-04-21 07:58 47.42893 19.24553 471 ft 0 kts 22°
2026-04-21 07:59 47.42897 19.24555 472 ft 2 kts 22°
2026-04-21 07:59 47.42924 19.24573 474 ft 6 kts 25°
2026-04-21 07:59 47.42960 19.24620 477 ft 8 kts 77°
2026-04-21 08:00 47.42952 19.24664 482 ft 0 kts 116°
2026-04-21 08:02 47.42928 19.24735 483 ft 11 kts 116°
2026-04-21 08:02 47.42945 19.24849 484 ft 11 kts 46°
2026-04-21 08:02 47.42999 19.24923 488 ft 11 kts 43°
2026-04-21 08:02 47.43071 19.24969 480 ft 12 kts 343°
2026-04-21 08:03 47.43103 19.24930 491 ft 0 kts 312°
2026-04-21 08:03 47.43161 19.24836 486 ft 43 kts 313°
2026-04-21 08:04 47.43524 19.24249 481 ft 108 kts 312°
2026-04-21 08:04 47.44145 19.23249 490 ft 154 kts 313°
2026-04-21 08:04 47.44877 19.22041 1050 ft 160 kts 313°
2026-04-21 08:04 47.45635 19.20789 1763 ft 166 kts 314°
2026-04-21 08:05 47.46412 19.19532 2410 ft 170 kts 316°
2026-04-21 08:05 47.47265 19.18171 2707 ft 192 kts 315°
2026-04-21 08:05 47.48210 19.16597 3052 ft 218 kts 307°
2026-04-21 08:05 47.48839 19.14419 3485 ft 246 kts 282°
2026-04-21 08:06 47.48734 19.11816 4212 ft 262 kts 254°
2026-04-21 08:06 47.47816 19.09476 5145 ft 269 kts 227°
2026-04-21 08:06 47.46269 19.07923 6068 ft 277 kts 208°
2026-04-21 08:06 47.44537 19.06675 7038 ft 277 kts 208°
2026-04-21 08:07 47.42798 19.05433 7974 ft 278 kts 208°
2026-04-21 08:07 47.41046 19.04179 8877 ft 281 kts 208°
2026-04-21 08:07 47.39282 19.02914 9773 ft 283 kts 208°
2026-04-21 08:07 47.37496 19.01624 10543 ft 288 kts 211°
2026-04-21 08:08 47.35664 19.00211 10973 ft 306 kts 211°
2026-04-21 08:08 47.33808 18.98638 11597 ft 312 kts 214°
2026-04-21 08:08 47.31877 18.97035 12101 ft 328 kts 208°
2026-04-21 08:08 47.29761 18.95630 12719 ft 338 kts 205°
2026-04-21 08:09 47.27557 18.94300 13445 ft 343 kts 205°
2026-04-21 08:09 47.25330 18.92962 14116 ft 348 kts 205°
2026-04-21 08:09 47.23085 18.91566 14740 ft 352 kts 206°
2026-04-21 08:09 47.20830 18.90104 15350 ft 356 kts 207°
2026-04-21 08:10 47.18558 18.88580 15980 ft 360 kts 207°
2026-04-21 08:10 47.16273 18.87018 16601 ft 364 kts 207°
2026-04-21 08:10 47.13905 18.85638 17212 ft 370 kts 197°
2026-04-21 08:10 47.11370 18.85085 17831 ft 375 kts 181°
2026-04-21 08:11 47.08758 18.85479 18455 ft 379 kts 166°
2026-04-21 08:11 47.06270 18.86815 18936 ft 385 kts 153°
2026-04-21 08:11 47.04013 18.88982 19400 ft 391 kts 144°
2026-04-21 08:11 47.01792 18.91331 19909 ft 395 kts 145°
2026-04-21 08:12 46.99547 18.93690 20411 ft 399 kts 145°
2026-04-21 08:12 46.98047 18.95263 20746 ft 402 kts 146°
2026-04-21 08:12 46.95761 18.97655 21238 ft 406 kts 146°
2026-04-21 08:12 46.93452 19.00067 21712 ft 410 kts 146°
2026-04-21 08:13 46.90358 19.03291 22338 ft 415 kts 146°
2026-04-21 08:13 46.87985 19.05739 22803 ft 419 kts 148°
2026-04-21 08:13 46.86351 19.07348 23112 ft 421 kts 149°
2026-04-21 08:13 46.83070 19.10429 23709 ft 425 kts 151°
2026-04-21 08:14 46.81398 19.11956 23937 ft 428 kts 153°
2026-04-21 08:14 46.78845 19.14269 24287 ft 433 kts 153°
2026-04-21 08:14 46.76275 19.16605 24676 ft 437 kts 152°
2026-04-21 08:14 46.73690 19.18974 25075 ft 440 kts 152°
2026-04-21 08:15 46.71089 19.21375 25448 ft 443 kts 152°
2026-04-21 08:15 46.68477 19.23797 25819 ft 446 kts 152°
2026-04-21 08:15 46.65854 19.26235 26188 ft 449 kts 152°
2026-04-21 08:15 46.63239 19.28663 26549 ft 452 kts 152°
2026-04-21 08:16 46.60579 19.31125 26905 ft 454 kts 152°
2026-04-21 08:16 46.57894 19.33600 27256 ft 457 kts 152°
2026-04-21 08:16 46.55194 19.36082 27525 ft 461 kts 153°
2026-04-21 08:16 46.52464 19.38589 27805 ft 466 kts 153°
2026-04-21 08:17 46.49713 19.41120 28121 ft 470 kts 153°
2026-04-21 08:17 46.46947 19.43665 28444 ft 473 kts 153°
2026-04-21 08:17 46.44161 19.46224 28777 ft 475 kts 153°
2026-04-21 08:17 46.41357 19.48792 29100 ft 478 kts 153°
2026-04-21 08:18 46.38529 19.51377 29418 ft 481 kts 153°
2026-04-21 08:18 46.35688 19.53971 29738 ft 484 kts 153°
2026-04-21 08:18 46.32831 19.56575 30044 ft 487 kts 153°
2026-04-21 08:18 46.29990 19.59162 30249 ft 490 kts 155°
2026-04-21 08:19 46.27089 19.61798 30423 ft 495 kts 155°
2026-04-21 08:19 46.24166 19.64451 30659 ft 497 kts 154°
2026-04-21 08:19 46.21224 19.67114 30911 ft 499 kts 154°
2026-04-21 08:19 46.18241 19.69672 31173 ft 496 kts 160°
2026-04-21 08:20 46.15123 19.71737 31431 ft 493 kts 164°
2026-04-21 08:20 46.11966 19.73711 31788 ft 492 kts 163°
2026-04-21 08:20 46.08828 19.75660 32156 ft 490 kts 163°
2026-04-21 08:20 46.05697 19.77597 32483 ft 489 kts 164°
2026-04-21 08:21 46.02610 19.79501 32806 ft 490 kts 164°
2026-04-21 08:21 45.99470 19.81436 33138 ft 489 kts 163°
2026-04-21 08:21 45.96325 19.83373 33494 ft 489 kts 163°
2026-04-21 08:21 45.93196 19.85299 33853 ft 488 kts 163°
2026-04-21 08:22 45.90113 19.87200 34180 ft 487 kts 163°
2026-04-21 08:22 45.86991 19.89122 34481 ft 487 kts 163°
2026-04-21 08:22 45.83882 19.91035 34780 ft 485 kts 163°
2026-04-21 08:22 45.80780 19.92942 35010 ft 485 kts 163°
2026-04-21 08:23 45.77674 19.94845 35246 ft 485 kts 163°
2026-04-21 08:23 45.74565 19.96748 35516 ft 485 kts 163°
2026-04-21 08:23 45.71469 19.98643 35800 ft 484 kts 163°
2026-04-21 08:23 45.68373 20.00535 36046 ft 483 kts 163°
2026-04-21 08:24 45.65277 20.02422 36293 ft 482 kts 163°
2026-04-21 08:24 45.62192 20.04299 36556 ft 481 kts 162°
2026-04-21 08:24 45.59112 20.06174 36778 ft 480 kts 162°
2026-04-21 08:24 45.56035 20.08048 36978 ft 481 kts 162°
2026-04-21 08:25 45.52957 20.09922 37043 ft 479 kts 162°
2026-04-21 08:25 45.46871 20.13620 37046 ft 477 kts 162°
2026-04-21 08:26 45.40771 20.17317 37043 ft 476 kts 162°
2026-04-21 08:26 45.34660 20.20997 37028 ft 476 kts 162°
2026-04-21 08:27 45.28543 20.24658 37043 ft 477 kts 162°
2026-04-21 08:27 45.22427 20.28330 37044 ft 477 kts 162°
2026-04-21 08:28 45.16356 20.31984 37044 ft 476 kts 162°
2026-04-21 08:28 45.10249 20.35631 37020 ft 476 kts 162°
2026-04-21 08:29 45.04132 20.39271 37040 ft 477 kts 162°
2026-04-21 08:29 44.98010 20.42912 37055 ft 477 kts 162°
2026-04-21 08:30 44.91922 20.46523 37057 ft 477 kts 162°
2026-04-21 08:30 44.85794 20.50157 37057 ft 477 kts 162°
2026-04-21 08:31 44.79676 20.53770 37061 ft 477 kts 162°
2026-04-21 08:31 44.73556 20.57378 37066 ft 476 kts 162°
2026-04-21 08:32 44.67432 20.60975 37030 ft 476 kts 162°
2026-04-21 08:32 44.61319 20.64555 37038 ft 476 kts 162°
2026-04-21 08:33 44.55241 20.68109 37046 ft 476 kts 162°
2026-04-21 08:33 44.49133 20.71684 37044 ft 475 kts 162°
2026-04-21 08:34 44.43024 20.75246 37031 ft 475 kts 162°
2026-04-21 08:34 44.36911 20.78793 37039 ft 475 kts 162°
2026-04-21 08:35 44.30851 20.82342 37050 ft 475 kts 161°
2026-04-21 08:35 44.24827 20.86208 37050 ft 477 kts 159°
2026-04-21 08:36 44.18847 20.90225 37039 ft 476 kts 159°
2026-04-21 08:36 44.12871 20.94179 37058 ft 475 kts 160°
2026-04-21 08:37 44.06869 20.98055 37061 ft 474 kts 160°
2026-04-21 08:37 44.00878 21.01893 37066 ft 474 kts 160°
2026-04-21 08:38 43.94888 21.05741 37049 ft 473 kts 160°
2026-04-21 08:38 43.88947 21.09570 37074 ft 474 kts 160°
2026-04-21 08:39 43.82957 21.13423 37064 ft 473 kts 160°
2026-04-21 08:39 43.76987 21.17245 37037 ft 472 kts 160°
2026-04-21 08:40 43.71050 21.21032 37045 ft 472 kts 160°
2026-04-21 08:40 43.65087 21.24832 37054 ft 472 kts 160°
2026-04-21 08:41 43.59129 21.28621 37059 ft 471 kts 160°
2026-04-21 08:41 43.53163 21.32410 37045 ft 471 kts 160°
2026-04-21 08:42 43.47198 21.36191 37072 ft 471 kts 160°
2026-04-21 08:42 43.41248 21.39942 37074 ft 471 kts 160°
2026-04-21 08:43 43.35328 21.43667 37072 ft 470 kts 160°
2026-04-21 08:43 43.29387 21.47405 37059 ft 469 kts 160°
2026-04-21 08:44 43.23447 21.51138 37063 ft 469 kts 160°
2026-04-21 08:44 43.17515 21.54853 37066 ft 468 kts 160°
2026-04-21 08:45 43.11585 21.58565 37066 ft 468 kts 160°
2026-04-21 08:45 43.05654 21.62264 37048 ft 468 kts 160°
2026-04-21 08:46 42.99760 21.65922 37056 ft 468 kts 161°
2026-04-21 08:46 42.93765 21.69347 37064 ft 464 kts 166°
2026-04-21 08:47 42.87663 21.72208 37038 ft 464 kts 167°
2026-04-21 08:47 42.81550 21.75064 37050 ft 464 kts 167°
2026-04-21 08:48 42.75465 21.77904 37058 ft 464 kts 167°
2026-04-21 08:48 42.69353 21.80752 37057 ft 464 kts 167°
2026-04-21 08:49 42.63244 21.83590 37052 ft 464 kts 167°
2026-04-21 08:49 42.57126 21.86430 37053 ft 464 kts 167°
2026-04-21 08:50 42.50999 21.89269 37053 ft 464 kts 167°
2026-04-21 08:50 42.44916 21.92079 37025 ft 464 kts 167°
2026-04-21 08:51 42.38797 21.94897 37028 ft 464 kts 167°
2026-04-21 08:51 42.32682 21.97704 37030 ft 464 kts 167°
2026-04-21 08:52 42.26591 22.00498 37027 ft 464 kts 167°
2026-04-21 08:52 42.20468 22.03309 37004 ft 464 kts 167°
2026-04-21 08:53 42.14344 22.06114 37020 ft 464 kts 167°
2026-04-21 08:53 42.08268 22.08886 37015 ft 464 kts 167°
2026-04-21 08:54 42.02135 22.11673 36992 ft 463 kts 167°
2026-04-21 08:54 41.96022 22.14448 37011 ft 463 kts 167°
2026-04-21 08:55 41.89955 22.17201 37005 ft 463 kts 167°
2026-04-21 08:55 41.83852 22.19956 37002 ft 463 kts 167°
2026-04-21 08:56 41.77735 22.22715 36985 ft 463 kts 167°
2026-04-21 08:56 41.71621 22.25481 36996 ft 463 kts 167°
2026-04-21 08:57 41.65557 22.28211 37005 ft 463 kts 167°
2026-04-21 08:57 41.59454 22.30950 36964 ft 462 kts 167°
2026-04-21 08:58 41.53353 22.33685 36977 ft 462 kts 167°
2026-04-21 08:58 41.47250 22.36415 36977 ft 462 kts 167°
2026-04-21 08:59 41.41142 22.39139 36976 ft 463 kts 167°
2026-04-21 08:59 41.35041 22.41852 36959 ft 462 kts 167°
2026-04-21 09:00 41.28935 22.44562 36954 ft 463 kts 167°
2026-04-21 09:00 41.22852 22.47262 36946 ft 463 kts 167°
2026-04-21 09:01 41.16790 22.50225 36923 ft 469 kts 157°
2026-04-21 09:01 41.10988 22.54239 36938 ft 470 kts 157°
2026-04-21 09:02 41.06175 22.57581 36945 ft 470 kts 157°
2026-04-21 09:02 40.99437 22.62251 36946 ft 470 kts 157°
2026-04-21 09:03 40.91682 22.67602 36925 ft 470 kts 157°
2026-04-21 09:03 40.85918 22.71575 36938 ft 470 kts 157°
2026-04-21 09:04 40.80119 22.75561 36948 ft 469 kts 157°
2026-04-21 09:04 40.74315 22.79547 36952 ft 469 kts 157°
2026-04-21 09:05 40.68522 22.83519 36939 ft 468 kts 157°
2026-04-21 09:05 40.62733 22.87477 36956 ft 468 kts 157°
2026-04-21 09:06 40.56977 22.91396 36963 ft 468 kts 158°
2026-04-21 09:06 40.51196 22.95317 36963 ft 467 kts 158°
2026-04-21 09:07 40.45419 22.99245 36963 ft 467 kts 157°
2026-04-21 09:07 40.39634 23.03173 36960 ft 467 kts 158°
2026-04-21 09:08 40.33892 23.07056 36961 ft 467 kts 158°
2026-04-21 09:08 40.28114 23.10959 36964 ft 467 kts 158°
2026-04-21 09:09 40.22338 23.14849 36930 ft 467 kts 158°
2026-04-21 09:09 40.16551 23.18741 36934 ft 467 kts 158°
2026-04-21 09:10 40.10758 23.22626 36944 ft 468 kts 158°
2026-04-21 09:10 40.04962 23.26512 36955 ft 468 kts 158°
2026-04-21 09:11 39.99168 23.30396 36961 ft 468 kts 158°
2026-04-21 09:11 39.93401 23.34249 36953 ft 468 kts 158°
2026-04-21 09:12 39.87592 23.38126 36963 ft 469 kts 158°
2026-04-21 09:12 39.81806 23.41972 36967 ft 469 kts 158°
2026-04-21 09:13 39.75997 23.45820 36968 ft 469 kts 158°
2026-04-21 09:13 39.70174 23.49691 36954 ft 471 kts 158°
2026-04-21 09:14 39.64348 23.53561 36950 ft 469 kts 158°
2026-04-21 09:14 39.58543 23.57389 36950 ft 468 kts 158°
2026-04-21 09:15 39.52729 23.61214 36950 ft 468 kts 158°
2026-04-21 09:15 39.46925 23.65037 36916 ft 467 kts 158°
2026-04-21 09:16 39.41128 23.68840 36920 ft 466 kts 158°
2026-04-21 09:16 39.35350 23.72611 36913 ft 466 kts 158°
2026-04-21 09:17 39.29551 23.76400 36815 ft 468 kts 158°
2026-04-21 09:17 39.26644 23.78303 36550 ft 467 kts 158°
2026-04-21 09:17 39.23775 23.80177 36261 ft 467 kts 158°
2026-04-21 09:18 39.20878 23.82066 36010 ft 467 kts 158°
2026-04-21 09:18 39.17985 23.83951 35762 ft 465 kts 158°
2026-04-21 09:18 39.15103 23.85829 35509 ft 463 kts 158°
2026-04-21 09:18 39.12230 23.87697 35260 ft 461 kts 158°
2026-04-21 09:19 39.09372 23.89551 35032 ft 459 kts 158°
2026-04-21 09:19 39.06524 23.91398 34940 ft 456 kts 158°
2026-04-21 09:19 39.00837 23.95086 34955 ft 457 kts 158°
2026-04-21 09:20 38.95148 23.98761 34970 ft 457 kts 158°
2026-04-21 09:20 38.89458 24.02426 34973 ft 457 kts 158°
2026-04-21 09:21 38.83761 24.06089 34973 ft 457 kts 158°
2026-04-21 09:21 38.78078 24.09737 34982 ft 456 kts 158°
2026-04-21 09:22 38.72448 24.13353 34976 ft 455 kts 158°
2026-04-21 09:22 38.66780 24.16992 34978 ft 455 kts 158°
2026-04-21 09:23 38.61110 24.20622 34977 ft 455 kts 158°
2026-04-21 09:23 38.55444 24.24240 34976 ft 455 kts 158°
2026-04-21 09:24 38.52604 24.26051 34599 ft 458 kts 158°
2026-04-21 09:24 38.49724 24.27880 33610 ft 465 kts 158°
2026-04-21 09:24 38.46911 24.29669 33156 ft 448 kts 158°
2026-04-21 09:24 38.44162 24.31423 32520 ft 437 kts 157°
2026-04-21 09:25 38.41470 24.33161 31792 ft 430 kts 156°
2026-04-21 09:25 38.38879 24.34981 31161 ft 422 kts 154°
2026-04-21 09:25 38.36366 24.36875 30456 ft 416 kts 152°
2026-04-21 09:25 38.33910 24.38792 29697 ft 412 kts 152°
2026-04-21 09:26 38.31484 24.40699 28876 ft 407 kts 152°
2026-04-21 09:26 38.29045 24.42597 27250 ft 419 kts 152°
2026-04-21 09:26 38.26492 24.44549 25634 ft 434 kts 152°
2026-04-21 09:26 38.23911 24.46502 24830 ft 426 kts 152°
2026-04-21 09:27 38.21423 24.48382 24435 ft 407 kts 152°
2026-04-21 09:27 38.19034 24.50186 24232 ft 392 kts 152°
2026-04-21 09:27 38.16698 24.51942 24073 ft 388 kts 153°
2026-04-21 09:27 38.14387 24.53672 23617 ft 382 kts 153°
2026-04-21 09:28 38.12114 24.55373 23104 ft 378 kts 152°
2026-04-21 09:28 38.09891 24.57036 22666 ft 373 kts 152°
2026-04-21 09:28 38.07666 24.58702 22220 ft 370 kts 152°
2026-04-21 09:28 38.05454 24.60359 21799 ft 368 kts 152°
2026-04-21 09:29 38.03254 24.62007 21367 ft 366 kts 152°
2026-04-21 09:29 38.01068 24.63641 20944 ft 364 kts 152°
2026-04-21 09:29 37.98890 24.65266 20524 ft 362 kts 152°
2026-04-21 09:29 37.96723 24.66883 20095 ft 361 kts 152°
2026-04-21 09:30 37.94567 24.68492 19692 ft 359 kts 152°
2026-04-21 09:30 37.92403 24.70104 19033 ft 366 kts 152°
2026-04-21 09:30 37.90197 24.71749 18625 ft 365 kts 152°
2026-04-21 09:30 37.88050 24.73350 18304 ft 360 kts 152°
2026-04-21 09:31 37.85842 24.74990 17268 ft 374 kts 152°
2026-04-21 09:31 37.83571 24.76675 15930 ft 383 kts 152°
2026-04-21 09:31 37.81239 24.78406 14725 ft 389 kts 151°
2026-04-21 09:31 37.78958 24.80107 14361 ft 369 kts 151°
2026-04-21 09:32 37.76839 24.81691 14114 ft 348 kts 151°
2026-04-21 09:32 37.74807 24.83208 13881 ft 332 kts 152°
2026-04-21 09:32 37.72830 24.84676 13631 ft 328 kts 152°
2026-04-21 09:32 37.70869 24.86123 13364 ft 325 kts 152°
2026-04-21 09:33 37.68924 24.87557 13096 ft 323 kts 152°
2026-04-21 09:33 37.66991 24.88984 12841 ft 321 kts 152°
2026-04-21 09:33 37.65066 24.90403 12582 ft 320 kts 152°
2026-04-21 09:33 37.63148 24.91818 12325 ft 318 kts 151°
2026-04-21 09:34 37.61238 24.93230 12071 ft 317 kts 151°
2026-04-21 09:34 37.59339 24.94631 11821 ft 316 kts 151°
2026-04-21 09:34 37.57463 24.96012 11570 ft 314 kts 151°
2026-04-21 09:34 37.55572 24.97406 11317 ft 313 kts 151°
2026-04-21 09:35 37.53692 24.98789 11074 ft 312 kts 151°
2026-04-21 09:35 37.51820 25.00164 10825 ft 310 kts 151°
2026-04-21 09:35 37.49956 25.01535 10587 ft 309 kts 151°
2026-04-21 09:35 37.48121 25.02920 10340 ft 307 kts 146°
2026-04-21 09:36 37.46507 25.04659 10098 ft 305 kts 135°
2026-04-21 09:36 37.45029 25.06564 9864 ft 302 kts 135°
2026-04-21 09:36 37.43566 25.08438 9508 ft 299 kts 135°
2026-04-21 09:36 37.42109 25.10297 9124 ft 298 kts 135°
2026-04-21 09:37 37.40655 25.12147 8720 ft 297 kts 135°
2026-04-21 09:37 37.39226 25.13968 8326 ft 296 kts 135°
2026-04-21 09:37 37.37782 25.15806 7912 ft 295 kts 135°
2026-04-21 09:37 37.36351 25.17627 7538 ft 292 kts 135°
2026-04-21 09:38 37.34931 25.19434 7207 ft 288 kts 135°
2026-04-21 09:38 37.33520 25.21229 6845 ft 286 kts 135°
2026-04-21 09:38 37.32129 25.22997 6472 ft 284 kts 136°
2026-04-21 09:38 37.30744 25.24752 6083 ft 281 kts 136°
2026-04-21 09:39 37.29382 25.26477 5997 ft 276 kts 136°
2026-04-21 09:39 37.28050 25.28163 6002 ft 264 kts 136°
2026-04-21 09:39 37.26802 25.29805 5710 ft 259 kts 129°
2026-04-21 09:39 37.25995 25.31810 5342 ft 259 kts 105°
2026-04-21 09:40 37.25851 25.34010 4908 ft 255 kts 84°
2026-04-21 09:40 37.26314 25.36145 4204 ft 254 kts 70°
2026-04-21 09:40 37.26919 25.38247 3627 ft 248 kts 69°
2026-04-21 09:40 37.27810 25.39937 3463 ft 230 kts 39°
2026-04-21 09:41 37.29185 25.40748 3272 ft 214 kts
2026-04-21 09:41 37.30599 25.40553 2964 ft 199 kts 339°
2026-04-21 09:41 37.31866 25.39984 2664 ft 188 kts 339°
2026-04-21 09:41 37.33051 25.39458 2421 ft 171 kts 339°
2026-04-21 09:42 37.34124 25.38985 2155 ft 157 kts 339°
2026-04-21 09:42 37.35127 25.38542 1946 ft 150 kts 338°
2026-04-21 09:42 37.36100 25.38112 1757 ft 147 kts 338°
2026-04-21 09:42 37.37057 25.37687 1565 ft 145 kts 338°
2026-04-21 09:43 37.38003 25.37269 1375 ft 144 kts 338°
2026-04-21 09:43 37.38943 25.36852 1194 ft 143 kts 338°
2026-04-21 09:43 37.39881 25.36436 1011 ft 143 kts 338°
2026-04-21 09:43 37.40821 25.36019 826 ft 143 kts 338°
2026-04-21 09:44 37.41759 25.35603 640 ft 142 kts 340°
2026-04-21 09:44 37.42694 25.35191 458 ft 143 kts 338°
2026-04-21 09:44 37.43539 25.34808 403 ft 95 kts 341°
2026-04-21 09:44 37.43876 25.34664 409 ft 7 kts 341°
2026-04-21 09:45 37.43934 25.34638 409 ft 21 kts 340°
2026-04-21 09:45 37.44099 25.34564 406 ft 24 kts 340°
2026-04-21 09:45 37.44254 25.34514 407 ft 18 kts 19°
2026-04-21 09:45 37.44309 25.34478 406 ft 9 kts 252°
2026-04-21 09:46 37.44251 25.34484 406 ft 10 kts 138°
2026-04-21 09:46 37.44198 25.34523 406 ft 9 kts 160°
2026-04-21 09:46 37.44135 25.34551 403 ft 11 kts 160°
2026-04-21 09:46 37.44058 25.34586 406 ft 13 kts 160°
2026-04-21 09:47 37.43973 25.34623 409 ft 13 kts 160°
2026-04-21 09:47 37.43884 25.34662 409 ft 15 kts 161°
2026-04-21 09:47 37.43772 25.34709 407 ft 19 kts 164°
2026-04-21 09:47 37.43682 25.34710 406 ft 10 kts 195°
2026-04-21 09:48 37.43650 25.34693 406 ft 0 kts 210°
2026-04-21 09:50 37.43582 25.34674 407 ft 6 kts 191°
2026-04-21 09:51 37.43561 25.34638 407 ft 2 kts 246°
2026-04-21 09:51 37.43559 25.34632 409 ft 0 kts 249°